Regional Weather Roundup
Issued by NWS State College, PA

Home | Current Version | Previous Version | Text Only | Print | Product List | Glossary Off
Versions: 1 2 3 4 5 6 7 8 9 10 11 12 13 14 15 16 17 18 19 20 21 22 23 24 25 26 27 28 29 30 31 32 33 34 35 36 37 38 39 40 41 42 43 44 45 46 47 48 49 50

000
ASUS41 KCTP 281510
RWRCTP

REGIONAL WEATHER ROUNDUP
NATIONAL WEATHER SERVICE STATE COLLEGE PA
1100 AM EDT MON JUL 28 2014

Note: "fair" indicates few or no clouds below 12,000 feet with no
significant weather and/or obstructions to visibility.

* = STATION THAT DOES NOT REPORT PRECIPITATION /E.G. RAIN...SNOW...ETC/
    THUNDER OR FOG.

PAZ002>004-007>009-013>016-020>023-029>032-281600-
WESTERN PENNSYLVANIA

CITY           SKY/WX    TMP DP  RH WIND       PRES   REMARKS
ERIE           RAIN      64  61  88 N16G30    29.71R FOG
MEADVILLE      CLOUDY    64  60  87 N9        29.71R
FRANKLIN*      CLOUDY    66  61  82 W12       29.71S
NEW CASTLE       N/A     67  63  87 W8        29.73S
BEAVER COUNTY  CLOUDY    63  61  94 W10G20    29.74R
BUTLER*        CLOUDY    64  57  77 W12G21    29.75R
PITTSBURGH INT LGT RAIN  64  59  83 SW10      29.74R
PITTSBURGH     CLOUDY    65  56  72 W13G21    29.74R
INDIANA*       CLOUDY    64  59  82 W9        29.75S
LATROBE        DRIZZLE   66  61  82 W13G21    29.74S
WASHINGTON CO* CLOUDY    66  57  72 W14G20    29.77S
$$

PAZ004>006-010>012-017>019-024>028-033>037-041-042-045-046-049>053-281600-
CENTRAL PENNSYLVANIA

CITY           SKY/WX    TMP DP  RH WIND       PRES   REMARKS
BRADFORD       LGT RAIN  64  58  80 W9        29.67R
DUBOIS         CLOUDY    64  59  83 W14       29.69R
CLEARFIELD     CLOUDY    64  58  80 W9        29.68R
JOHNSTOWN      LGT RAIN  59  57  93 W9        29.73S
ALTOONA        CLOUDY    68  58  70 NW7       29.71S
STATE COLLEGE  PTSUNNY   68  59  73 W18G26    29.66S
WILLIAMSPORT   PTSUNNY   74  61  63 W14       29.57S
SELINSGROVE    CLOUDY    73  62  68 VRB3      29.62R
FT INDIANTOWN  PTSUNNY   74  64  72 W13G18    29.62S
CAPITAL CITY   MOSUNNY   75  62  64 W15       29.63R
HARRISBURG     MOSUNNY   77  61  57 W14       29.62R
YORK           PTSUNNY   75  61  61 W14G23    29.64S
$$

PAZ038>040-043-044-047-048-054-055-060>062-067>071-281600-
EASTERN PENNSYLVANIA

CITY           SKY/WX    TMP DP  RH WIND       PRES   REMARKS
SCRANTON       CLOUDY    70  63  78 SW12      29.58S
MOUNT POCONO   CLOUDY    68  59  73 W16       29.61F
ALLENTOWN      PTSUNNY   75  64  68 W9        29.58F
QUAKERTOWN*    PTSUNNY   75  66  73 W10       29.61R
READING        PTSUNNY   75  64  68 W13       29.60R
LANCASTER      PTSUNNY   74  62  66 W21G29    29.62R
COATESVILLE    MOSUNNY   73  68  83 NW15G23   29.63S
POTTSTOWN      PTSUNNY   76  65  68 NW12      29.61S
BLUE BELL      PTSUNNY   75  68  78 W10G16    29.59S
DOYLESTOWN     PTSUNNY   74  66  76 VRB7      29.59S
WILLOW GROVE   NOT AVBL
NORTH PHILA    MOSUNNY   79  65  62 W12G23    29.60S
PHILADELPHIA   MOSUNNY   79  65  62 NW14      29.60R
$$


USA.gov is the U.S. government's official web portal to all federal, state and local government web resources and services.